EW4036 Weather Reports


time (UTC)temp
C
wind
direction
speed
KPH
gust
KPH
rain 1hr
cm
rain 24hr
cm
rain mn
cm
humidity
%
barometer
mb
20260831053003 13 186 9.7 12.9 0.00 1.04 0.00 96 1004.2
20260831051503 13 193 9.7 17.7 0.00 1.04 0.00 96 1004.3
20260831050003 13 177 6.4 14.5 0.00 1.04 0.00 97 1004.2
20260831044502 13 210 8.0 12.9 0.00 1.04 0.00 97 1004.2
20260831041504 13 197 4.8 12.9 0.00 1.04 0.00 97 1003.9
20260831040015 13 192 8.0 11.3 0.00 1.04 0.00 97 1003.8
20260831034601 13 231 8.0 14.5 0.00 1.04 0.00 97 1003.8
20260831033006 13 213 11.3 16.1 0.00 1.04 0.00 97 1003.7
20260831031601 13 205 9.7 14.5 0.00 1.04 0.00 97 1003.7
20260831030004 13 223 9.7 14.5 0.00 1.04 0.00 98 1003.6
20260831024502 13 223 9.7 12.9 0.00 1.04 0.00 98 1003.5
20260831023005 13 208 8.0 17.7 0.00 1.04 0.00 98 1003.5
20260831021502 13 194 11.3 17.7 0.00 1.04 0.00 97 1003.5
20260831014502 13 205 9.7 16.1 0.00 1.09 0.00 97 1003.5
20260831013005 13 190 8.0 16.1 0.00 1.09 0.00 97 1003.4
20260831011602 13 182 9.7 14.5 0.00 1.09 0.00 97 1003.3
20260831010200 13 192 9.7 12.9 0.00 1.09 0.00 97 1003.4
20260831004601 13 194 9.7 14.5 0.00 1.09 0.00 98 1003.3
20260831003003 13 200 8.0 16.1 0.00 1.09 0.00 98 1003.4
20260831001503 13 204 8.0 11.3 0.00 1.09 0.00 98 1003.4
20260831000007 14 241 9.7 17.7 0.00 1.09 0.00 98 1003.2
20260830234503 14 214 12.9 22.5 0.00 1.09 0.00 98 1003.0
20260830233007 14 259 12.9 24.1 0.00 1.09 0.00 98 1003.1
20260830231508 14 211 8.0 17.7 0.00 1.09 0.00 99 1002.9
20260830230009 14 235 6.4 14.5 0.00 1.09 0.00 99 1002.9
20260830224510 14 222 4.8 11.3 0.00 1.09 0.00 98 1002.8
20260830223016 14 252 9.7 16.1 0.08 1.09 0.00 98 1002.7
20260830221512 14 257 11.3 19.3 0.10 1.09 0.00 98 1002.6
20260830220014 15 238 11.3 17.7 0.13 1.09 0.00 99 1002.5
20260830214512 15 268 9.7 17.7 0.13 1.09 1.09 98 1002.4
20260830213014 15 250 12.9 22.5 0.05 1.02 1.02 98 1002.2
20260830211518 15 254 4.8 9.7 0.03 0.99 0.99 99 1002.0
20260830210012 15 250 3.2 4.8 0.00 0.99 0.99 98 1001.9
20260830204610 15 321 0.0 0.0 0.03 0.99 0.99 98 1001.7
20260830203016 15 321 0.0 0.0 0.05 0.99 0.99 98 1001.6
20260830201512 15 321 0.0 0.0 0.15 0.99 0.99 98 1001.5
20260830200015 15 360 0.0 0.0 0.18 0.99 0.99 98 1001.4
20260830194511 15 360 0.0 0.0 0.20 0.97 0.97 98 1001.3
20260830193015 15 360 0.0 0.0 0.25 0.89 0.89 98 1001.3
20260830191509 15 63 0.0 0.0 0.30 0.81 0.81 98 1001.3
20260830190017 15 63 0.0 0.0 0.36 0.79 0.79 98 1001.2
20260830184514 15 63 0.0 0.0 0.38 0.79 0.76 98 1001.0
20260830183124 15 63 0.0 0.0 0.30 0.69 0.66 98 1001.1
20260830181512 15 85 0.0 0.0 0.15 0.53 0.51 98 1001.0
20260830180009 16 86 0.0 0.0 0.05 0.43 0.43 98 1001.0
20260830174523 16 100 0.0 4.8 0.03 0.51 0.38 98 1000.9
20260830173009 16 63 0.0 4.8 0.05 0.51 0.36 97 1000.9
20260830171610 16 71 0.0 0.0 0.10 0.51 0.36 97 1000.9
20260830170009 16 93 1.6 4.8 0.18 0.51 0.36 97 1001.0
20260830164610 16 105 1.6 4.8 0.23 0.61 0.36 97 1000.9
20260830163013 16 86 1.6 8.0 0.20 0.58 0.33 97 1000.9
20260830161635 16 91 0.0 3.2 0.15 0.51 0.25 96 1000.9
20260830160015 16 83 0.0 8.0 0.05 0.43 0.18 96 1000.9
20260830154512 16 46 1.6 8.0 0.03 0.51 0.13 96 1001.1
20260830153009 16 128 3.2 11.3 0.05 0.51 0.13 96 1001.1
20260830151518 16 123 3.2 11.3 0.05 0.51 0.13 95 1001.2
20260830150014 16 72 4.8 9.7 0.05 0.51 0.13 95 1001.3
20260830144513 16 70 3.2 9.7 0.05 0.91 0.10 94 1001.4
20260830143015 16 144 3.2 9.7 0.03 0.89 0.08 93 1001.6
20260830141512 16 144 6.4 11.3 0.00 0.89 0.05 90 1001.6
20260830140010 17 156 3.2 9.7 0.00 0.89 0.05 89 1001.7
20260830134524 17 144 8.0 12.9 0.00 0.89 0.05 87 1001.7
20260830133012 17 148 8.0 17.7 0.00 0.89 0.05 86 1001.7
20260830131509 17 171 6.4 14.5 0.00 0.89 0.05 87 1001.7
20260830130014 17 144 8.0 17.7 0.00 0.89 0.05 87 1001.8
20260830124608 17 159 8.0 19.3 0.00 0.89 0.05 86 1001.8
20260830123008 17 148 8.0 14.5 0.00 0.89 0.05 86 1001.8
20260830121510 17 143 6.4 12.9 0.00 0.89 0.05 86 1001.8
20260830120012 17 171 9.7 17.7 0.00 0.89 0.05 87 1001.9
20260830114509 17 139 8.0 16.1 0.00 0.89 0.05 88 1002.0
20260830113012 17 163 9.7 16.1 0.00 0.89 0.05 88 1002.1
20260830111511 17 148 9.7 17.7 0.00 0.89 0.05 89 1002.1
20260830110014 17 152 8.0 17.7 0.00 0.89 0.05 90 1002.2
20260830104511 17 178 11.3 19.3 0.00 0.89 0.05 89 1002.4
20260830103108 17 159 12.9 19.3 0.00 0.89 0.05 89 1002.3
20260830101511 17 180 12.9 22.5 0.00 0.89 0.05 90 1002.3
20260830100011 17 184 14.5 24.1 0.00 0.89 0.05 90 1002.3
20260830094514 17 167 9.7 17.7 0.00 0.89 0.05 91 1002.4
20260830091512 16 164 8.0 19.3 0.00 0.89 0.05 93 1002.5
20260830090018 16 185 6.4 17.7 0.00 0.89 0.05 94 1002.5
20260830084609 16 172 9.7 17.7 0.00 0.89 0.05 94 1002.7
20260830083013 16 165 6.4 16.1 0.00 0.89 0.05 94 1002.7
20260830081610 16 126 6.4 19.3 0.00 0.89 0.05 95 1002.8
20260830080009 16 142 9.7 20.9 0.00 0.89 0.05 95 1002.8
20260830074519 16 150 6.4 17.7 0.00 0.89 0.05 96 1002.8
20260830073012 15 164 9.7 14.5 0.00 0.89 0.05 96 1002.7
20260830071512 15 165 8.0 16.1 0.00 0.89 0.05 97 1002.7
20260830070011 15 176 6.4 14.5 0.00 0.89 0.05 97 1002.8
20260830064508 15 144 8.0 16.1 0.00 0.89 0.05 97 1002.8
20260830063013 15 164 6.4 12.9 0.00 0.89 0.05 98 1002.6
20260830061609 15 132 6.4 14.5 0.00 0.89 0.05 98 1002.6
20260830060009 14 131 4.8 9.7 0.00 0.89 0.05 98 1002.7
20260830054520 14 131 3.2 11.3 0.00 0.89 0.05 98 1002.8